Regional Weather Roundup
Issued by NWS

Home | Current Version | Previous Version | Text Only | Print | Product List | Glossary On
Versions: 1 2 3 4 5 6 7 8 9 10 11 12 13 14 15 16 17 18 19 20 21 22 23 24 25 26 27 28 29 30 31 32 33 34 35 36 37 38 39 40 41 42 43 44 45 46 47 48 49 50
000
ASUS43 KTOP 242008
RWRKS

WEATHER ROUNDUP FOR KANSAS
NATIONAL WEATHER SERVICE GOODLAND KS
300 PM CDT TUE APR 24 2018

NOTE:  "FAIR" INDICATES FEW OR NO CLOUDS BELOW 12,000 FEET WITH NO
SIGNIFICANT WEATHER AND/OR OBSTRUCTIONS TO VISIBILITY.

KSZ001>006-013>018-027>032-041>047-242100-
NORTHWEST KANSAS

CITY           SKY/WX    TMP DP  RH WIND       PRES   REMARKS
GOODLAND       CLOUDY    41  38  89 N23G31    30.33F
HAYS           LGT RAIN  45  42  89 NW23      30.25F
HILL CITY      LGT RAIN  44  43  96 N16G25    30.30S FOG
RUSSELL        CLOUDY    48  47  96 N20       30.24S
$$

KSZ061>065-074>080-084>089-242100-
SOUTHWEST KANSAS

CITY           SKY/WX    TMP DP  RH WIND       PRES   REMARKS
DODGE CITY     CLOUDY    48  40  73 N22G33    30.26R
ELKHART        PTSUNNY   46  40  80 N24       30.30S
GARDEN CITY    CLOUDY    45  39  79 N22G35    30.29R
GREAT BEND     CLOUDY    50  45  83 NW20      30.24S
LIBERAL        CLOUDY    50  40  68 N25       30.27R
PRATT          PTSUNNY   57  46  65 N25       30.21S
$$

KSZ066>073-081>083-090>101-242100-
SOUTHEAST KANSAS

CITY           SKY/WX    TMP DP  RH WIND       PRES   REMARKS
CHANUTE        SUNNY     79  34  19 N12G17    30.08F
COFFEYVILLE    SUNNY     78  36  21 NE7       30.07F
HUTCHINSON     PTSUNNY   64  49  57 NW21      30.16R
MEDICINE LODGE   N/A     63  49  60 N22G31    30.15R
NEWTON         PTSUNNY   73  39  29 W12       30.13S
PARSONS        SUNNY     78  36  21 N9        30.08F
WICHITA INTL   CLOUDY    76  41  28 N8G21     30.11F
WICHITA JABRA  PTSUNNY   76  34  21 N8        30.11S
WICHITA MCCONL MOSUNNY   76  36  23 NW10      30.10F
WINFIELD       SUNNY     77  39  25 N9        30.10F
$$

KSZ007>012-019>026-033>040-048>060-102>105-242100-
NORTHEAST KANSAS

CITY           SKY/WX    TMP DP  RH WIND       PRES   REMARKS
CONCORDIA      LGT RAIN  49  46  90 N21G30    30.21R
EMPORIA        MOSUNNY   75  34  22 NW3       30.08F
LAWRENCE       MOSUNNY   79  32  18 N12G25    30.07F
MANHATTAN      CLOUDY    75  39  27 N5        30.09F
MARYSVILLE     CLOUDY    64  45  48 NW24G31   30.14R
OLATHE IND     PTSUNNY   76  34  21 NW15      30.09S
OLATHE EXE     PTSUNNY   75  35  23 N15       30.07F
SALINA         CLOUDY    61  48  62 NW24G30   30.18R
TOPEKA BILLARD MOSUNNY   77  34  21 NW10      30.08F
TOPEKA FORBES  MOSUNNY   77  33  20 NW7       30.09S
$$




USA.gov is the U.S. government's official web portal to all federal, state and local government web resources and services.